Weather History for Cincinnati, OH

Change the Weather History Date:

Saturday, September 22, 2012

  Actual Average Record
Temperature  
Mean Temperature 59 °F -  
Max Temperature 73 °F 75 °F 96 °F (2010)
Min Temperature 44 °F 54 °F 37 °F (1999)
Degree Days  
Heating Degree Days 6    
Growing Degree Days 9 (Base 50)    
Moisture  
Dew Point 49 °F    
Average Humidity 69    
Maximum Humidity 96    
Minimum Humidity 30    
Precipitation  
Precipitation 0.41 in - - ()
Sea Level Pressure  
Sea Level Pressure 29.93 in    
Wind  
Wind Speed 8 mph (West)    
Max Wind Speed 22 mph    
Max Gust Speed 36 mph    
Visibility 8 miles    
Events Rain    
Averages and records for this station are not official NWS values.
T = Trace of Precipitation, MM = Missing Value Source: NWS Daily Summary

Daily Weather History Graph

Daily Weather History Graph

Search for Another Location

Airport:

Trip Planner

Search our weather history database for the weather conditions in past years. The results will help you decide how hot, cold, wet, or windy it might be!

Date:

Astronomy

Sep. 22, 2012 Rise Set
Actual Time 7:25 AM EDT 7:33 PM EDT
Civil Twilight 6:59 AM EDT 8:00 PM EDT
Nautical Twilight 6:27 AM EDT 8:31 PM EDT
Astronomical Twilight 5:56 AM EDT 9:03 PM EDT
Moon 2:40 PM EDT (9/22) No Moon Set
Length of Visible Light 13h 01m
Length of Day
12h 08m
Waxing Crescent, 48% of the Moon is Illuminated
Sep 22
Waxing Crescent
Sep 22
First Quarter
Sep 29
Full
Oct 8
Last Quarter
Oct 15
New

Hourly Weather History & Observations

Time (EDT) Temp. Dew Point Humidity Pressure Visibility Wind Dir Wind Speed Gust Speed Precip Events Conditions
12:38 AM 66.2 °F 55.4 °F 68% 29.79 in 10.0 mi WNW 9.2 mph 21.9 mph N/A   Overcast
12:53 AM 63.0 °F 55.9 °F 78% 29.80 in 8.0 mi North 12.7 mph - 0.00 in Rain Light Rain
1:53 AM 60.1 °F 59.0 °F 96% 29.78 in 4.0 mi Calm Calm - 0.12 in Rain Rain
2:11 AM 60.8 °F 57.2 °F 88% 29.81 in 3.0 mi NNW 8.1 mph - 0.06 in Rain Heavy Rain
2:16 AM 60.8 °F 59.0 °F 94% 29.81 in 1.8 mi Calm Calm - 0.13 in Rain Heavy Rain
2:24 AM 60.8 °F 59.0 °F 94% 29.81 in 2.5 mi SE 3.5 mph - 0.16 in Rain Rain
2:42 AM 60.8 °F 59.0 °F 94% 29.81 in 1.8 mi SW 6.9 mph - 0.27 in Rain Heavy Rain
2:50 AM 62.6 °F 60.8 °F 94% 29.80 in 3.0 mi SW 9.2 mph - 0.29 in Rain Rain
2:53 AM 63.0 °F 60.1 °F 90% 29.80 in 5.0 mi SW 9.2 mph - 0.29 in Rain Light Rain
3:53 AM 62.1 °F 60.1 °F 93% 29.79 in 10.0 mi SSW 4.6 mph - 0.00 in   Overcast
4:01 AM 62.6 °F 60.8 °F 94% 29.80 in 10.0 mi SSW 5.8 mph - N/A   Overcast
4:53 AM 63.0 °F 61.0 °F 93% 29.81 in 10.0 mi WSW 6.9 mph - N/A   Mostly Cloudy
5:53 AM 64.0 °F 60.1 °F 87% 29.82 in 10.0 mi West 8.1 mph - N/A   Overcast
6:53 AM 62.1 °F 57.0 °F 84% 29.86 in 10.0 mi West 9.2 mph - N/A   Overcast
7:53 AM 61.0 °F 55.0 °F 81% 29.89 in 10.0 mi West 12.7 mph - N/A   Mostly Cloudy
8:53 AM 59.0 °F 53.1 °F 81% 29.91 in 10.0 mi WNW 6.9 mph - N/A   Mostly Cloudy
9:53 AM 61.0 °F 53.1 °F 75% 29.94 in 10.0 mi West 9.2 mph - N/A   Scattered Clouds
10:53 AM 63.0 °F 52.0 °F 67% 29.94 in 10.0 mi Calm Calm - N/A   Scattered Clouds
11:53 AM 64.9 °F 53.1 °F 65% 29.95 in 10.0 mi SW 11.5 mph 16.1 mph N/A   Scattered Clouds
12:53 PM 69.1 °F 51.1 °F 53% 29.94 in 10.0 mi SW 12.7 mph 19.6 mph N/A   Clear
1:53 PM 70.0 °F 48.0 °F 46% 29.93 in 10.0 mi West 15.0 mph 20.7 mph N/A   Partly Cloudy
2:53 PM 71.1 °F 46.0 °F 41% 29.92 in 10.0 mi WSW 19.6 mph 29.9 mph N/A   Mostly Cloudy
3:53 PM 72.0 °F 43.0 °F 35% 29.94 in 10.0 mi West 21.9 mph 34.5 mph N/A   Mostly Cloudy
4:53 PM 71.1 °F 39.9 °F 32% 29.97 in 10.0 mi WNW 17.3 mph 32.2 mph N/A   Scattered Clouds
5:53 PM 63.0 °F 36.0 °F 37% 30.05 in 10.0 mi NW 19.6 mph 35.7 mph N/A   Clear
6:53 PM 60.1 °F 28.0 °F 30% 30.09 in 10.0 mi NW 15.0 mph 21.9 mph N/A   Clear
7:53 PM 55.9 °F 28.0 °F 34% 30.12 in 10.0 mi North 9.2 mph - N/A   Clear
8:53 PM 54.0 °F 30.0 °F 40% 30.14 in 10.0 mi Calm Calm - N/A   Clear
9:53 PM 53.1 °F 30.9 °F 43% 30.15 in 10.0 mi NNW 5.8 mph - N/A   Clear
10:53 PM 48.9 °F 35.1 °F 59% 30.16 in 10.0 mi Calm Calm - N/A   Clear
11:01 PM 46.4 °F 37.4 °F 71% 30.17 in 10.0 mi Calm Calm - N/A   Clear
11:53 PM 44.1 °F 37.9 °F 79% 30.17 in 10.0 mi Calm Calm - N/A   Clear